Location: Newark
(11.2914°S, 14.4718°E)
Time: 03:24:55
(UTC+00:00)

Explorer 7 - Pass Details

Date: 23 September 2019
Orbit: 485 x 680 km, 50.3° (Epoch: 19 October)

Event Time Altitude Azimuth Distance (km) Brightness Sun altitude
Rises 17:36:49 0° 243° (WSW) 2,559 11.6 -10.3°
Reaches altitude 10° 17:39:31 10° 263° (W) 1,689 10.9 -11.0°
Maximum altitude 17:42:07 18° 306° (NW) 1,301 9.4 -11.6°
Drops below altitude 10° 17:44:46 10° 350° (N) 1,728 9.5 -12.3°
Sets 17:47:35 0° 9° (N) 2,646 10.2 -13.0°
